{"data":{"norad_id":59451,"epoch":"2026-05-25T01:04:50.357856Z","epoch_age_seconds":70590,"freshness":"FRESH","line1":"1 59451U 24066K   26145.04502729  .00004937  00000+0  35401-3 0  9997","line2":"2 59451  45.6076  15.3576 0001595 297.4215  62.6506 15.05570038116637","mean_motion":15.05570038,"eccentricity":0.0001595,"inclination_deg":45.6076,"raan_deg":15.3576,"arg_perigee_deg":297.4215,"mean_anomaly_deg":62.6506,"bstar":0.00035401,"rev_number":11663,"period_min":95.644836417766,"perigee_km":548.6514413984,"apogee_km":550.86143940589,"semimajor_km":6927.8934404021,"source":"CELESTRAK","updated_at":"2026-05-25T13:38:01.426901Z"}}